Location: Brno
(49.2000°N, 16.6330°E)
Time: 09:03:56
(UTC+01:00)

ISS - Pass Details

Date: 02 December 2021
Orbit: 413 x 422 km, 51.6° (Epoch: 27 January)

Event Time Altitude Azimuth Distance (km) Brightness Sun altitude
Rises 17:45:03 0° 288° (WNW) 2,388 1.1 -16.8°
Reaches altitude 10° 17:47:10 10° 289° (WNW) 1,519 -0.1 -17.2°
Maximum altitude 17:50:35 81° 18° (NNE) 434 -3.9 -17.7°
Enters shadow 17:51:15 55° 95° (E) 518 -3.7 -17.8°
